cliquez pour ajouter le site Runraid à vos favoris  English version (google)  Retour à l'accueil Ecrire à l'auteur du site Runraid : Michel Jourdan



Les prochaines courses


Les derniers résultats

cliquez pour visualiser la page complète relatant la chronologie des éruptions du Piton de la Fournaise
éruptions Piton de la Fournaise


Ile de La Réunion

 Diagonale des Fous 

Ecrire au créateur du site : Michel Jourdan
Contact


2014-03-02 - Trail de Vulcain Ultra 50 miles

Pour consulter le palmarès d'un coureur, un clic sur son nom !

Vous avez des remarques, corrections, ... sur ces résultats , un clic sur --> pour me transmettre toute information concernant les classements


Trail de Vulcain Ultra 50 miles - 2014 : classement des 321 finishers
Place Nom Temps Cat. Club Sexe Clt/cat.
Place Nom Temps Cat. Club Sexe Clt/cat.
1 GAY Anthony 7:37:24 SEM - M 162
2 POSECAK Clement 8:03:39 SEM - M 2 SEM 254
3 BROGNIART Stephane 8:06:59 SEM - M 3 SEM 200
4 COQUARD remi 8:21:52 SEM - M 4 SEM 97
5 BONNET Rudy 8:21:59 SEM - M 5 SEM 33
6 BREMONT Arnaud 8:30:26 SEM - M 6 SEM 223
7 SHERPA Sange 8:51:46 SEM - M 7 SEM 329
8 HERLAND Sebastien 8:53:14 V1M - M 1 V1M 187
9 DE PREVILLE Beno 9:06:46 V1M - M 2 V1M 422
10 GAST Nicolas 9:13:48 SEM - M 8 SEM 338
11 EWALD Jean Baptiste 9:14:09 SEM - M 9 SEM 1
12 SAHNOUNE Hakim 9:15:19 SEM - M 10 SEM 36
13 NORIS Pierre 9:20:01 SEM - M 11 SEM 146
14 ZOTOS Philippe 9:20:14 V1M - M 3 V1M 274
15 BENOIST Wilfried 9:20:56 SEM - M 12 SEM 90
16 CHAUSSE Sebastien 9:21:03 SEM - M 13 SEM 216
17 PAPI Luca 9:21:20 SEM - M 14 SEM 35
18 ZADOKS Gideon 9:30:19 V1M - M 4 V1M 161
19 PIVERT Jean Baptiste 9:31:07 V2M - M 1 V2M 387
20 OLIVER Laurent 9:31:59 V1M - M 5 V1M 22
21 NOWICKI Franck 9:33:18 V1M - M 6 V1M 112
22 DE SA CLARA Martial 9:35:25 V1M - M 7 V1M 192
23 RIOUAL Erwan 9:37:13 V1M - M 8 V1M 115
24 ROUSSEAU Stephane 9:37:23 V1M - M 9 V1M 59
25 LAMENDOUR Serge 9:38:44 V1M - M 10 V1M 360
26 ASTIER Marc 9:39:03 SEM - M 15 SEM 412
27 BENOIT Caroline 9:39:11 SEF - F 1ere F 426
28 EVRARD Guillaume 9:44:13 SEM - M 16 SEM 205
29 CHAUSSE Loic 9:44:19 V1M - M 11 V1M 174
30 COCHET Micka 9:47:03 SEM - M 17 SEM 7
31 COUCHOUD Fabrice 9:51:14 SEM - M 18 SEM 99
32 LABAZUY Philippe 9:54:00 V1M - M 12 V1M 351
33 BARREAU Eric 9:55:52 V1M - M 13 V1M 251
34 CERISIER Nicolas 9:55:56 SEM - M 19 SEM 98
35 DUPUICH Cedric 9:55:59 V1M - M 14 V1M 65
36 MARTIN Ludovic 10:00:21 SEM - M 20 SEM 352
37 MARCHAND Stephane 10:02:02 V1M - M 15 V1M 213
38 BADIE Stephane 10:04:45 V1M - M 16 V1M 289
39 LILLAZ Pascal 10:06:33 V2M - M 2 V2M 84
40 ALLILAIRE Franck 10:07:21 V1M - M 17 V1M 198
41 CORCESSIN Sebastien 10:07:26 V1M - M 18 V1M 43
42 WEENING Marc 10:10:09 SEM - M 21 SEM 182
43 FRONGIA Eric 10:15:32 V1M - M 19 V1M 376
44 TRILLEAUD Teddy 10:18:19 SEM - M 22 SEM 427
45 COGNET Yv es 10:21:01 V1M - M 20 V1M 248
46 RUIZ Patrick 10:22:04 V1M - M 21 V1M 197
47 LAURET Denis 10:22:50 V1M - M 22 V1M 130
48 AUROY Pascal 10:23:11 V2M - M 3 V2M 199
49 BALAHACHI Rafion 10:23:48 SEM - M 23 SEM 57
50 COHADON Sylvain 10:25:18 SEM - M 24 SEM 433
51 CRESTEY Nordhal 10:26:49 V1M - M 23 V1M 186
52 OUCHEN Abdelghani 10:28:09 V1M - M 24 V1M 452
53 ADE Gregory 10:29:21 V1M - M 25 V1M 332
54 SOULAS Rejane 10:29:39 V1F - F 1 V1F 265
55 GOUIFFES Didier 10:29:44 V2M - M 4 V2M 331
56 LECAUCHOIS Yoann 10:31:46 SEM - M 25 SEM 256
57 LAVAGNINI Thomas 10:31:49 SEM - M 26 SEM 194
58 LAVAGNINI Anthony 10:31:53 V1M - M 26 V1M 68
59 HUCHON Florent 10:32:28 V2M - M 5 V2M 325
60 PY Yannick 10:33:59 V1M - M 27 V1M 314
61 SZCZESNY Laurent 10:34:30 V1M - M 28 V1M 138
62 VERHAEGHE Bruno 10:34:56 V1M - M 29 V1M 64
63 GOUTAGNY Georges 10:35:52 V2M - M 6 V2M 212
64 CATTO Cedric 10:36:10 V1M - M 30 V1M 337
65 SARGES Micka 10:36:25 SEM - M 27 SEM 328
66 VIGIER Marlene 10:36:29 SEF - F 2 SEF 346
67 PHILIPPE Stephane 10:36:35 V1M - M 31 V1M 384
68 SAVART Roger 10:38:06 V2M - M 7 V2M 211
69 CHARTIER Jo 10:38:38 V2M - M 8 V2M 270
70 GUILLON Philippe 10:38:42 V2M - M 9 V2M 231
71 THEZE Laurent 10:42:01 V2M - M 10 V2M 394
72 LAUTARD Christophe 10:42:29 SEM - M 28 SEM 107
73 MUNIER Christophe 10:42:34 V1M - M 32 V1M 363
74 SOULIER Jerome 10:42:54 SEM - M 29 SEM 118
75 LE CROM Laurent 10:43:19 SEM - M 30 SEM 222
76 BRETON David 10:44:02 SEM - M 31 SEM 66
77 DIDIER Stephane 10:44:31 V1M - M 33 V1M 280
78 PARTHENAY Gr?gory 10:46:20 V1M - M 34 V1M 383
79 MAUPLIN Mikael 10:47:34 SEM - M 32 SEM 253
80 MAFFEIS Nicolas 10:47:50 SEM - M 33 SEM 45
81 TROTEL Pascal 10:48:57 V2M - M 11 V2M 440
82 FOUCHAULT Xavier 10:49:16 V2M - M 12 V2M 271
83 BOUZIN Cedric 10:49:20 SEM - M 34 SEM 395
84 JACQ Pascal 10:50:45 V1M - M 35 V1M 264
85 TIXIER Bertrand 10:51:28 SEM - M 35 SEM 316
86 PINTO DE CARVALHO Jeremy 10:52:27 SEM - M 36 SEM 142
87 JOURDHEUIL Xavier 10:53:43 V2M - M 13 V2M 87
88 ETHORE Sylvain 10:57:09 V1M - M 36 V1M 398
89 CARBONNET Joel 10:58:56 SEM - M 37 SEM 255
90 ARNAUD Laurent 10:59:09 V1M - M 37 V1M 247
91 LECLERCQ David 10:59:19 V1M - M 38 V1M 310
92 GUYADER G?rard 11:02:45 V2M - M 14 V2M 303
93 BRUHAT Sophie 11:04:40 V1F - F 2 V1F 439
94 SANTERRE Christian 11:04:44 V1M - M 39 V1M 185
95 CHIRON Gilles 11:05:15 V1M - M 40 V1M 8
96 GAUTHIER Jacques 11:05:36 SEM - M 38 SEM 102
97 BOURY Ga 11:07:40 SEM - M 39 SEM 37
98 RAY Eli 11:08:15 SEM - M 40 SEM 327
99 TARCY Olivier 11:08:47 V1M - M 41 V1M 176
100 BATISSE Bruno 11:09:34 V1M - M 42 V1M 296
101 XXX 11:12:41 SEM - M 41 SEM 244
102 GIRARDIN Benjamin 11:14:27 SEM - M 42 SEM 181
103 KIRREN Patrice 11:16:03 V2M - M 15 V2M 290
104 TRESSOU Benjamin 11:17:39 SEM - M 43 SEM 228
105 STOCKLE Thomas 11:17:55 V1M - M 43 V1M 447
106 SENZIER Caroline 11:18:11 V2F - F 1 V2F 388
107 JUNGER Alexandre 11:18:25 SEM - M 44 SEM 436
108 PRICHYSTAL Jean Baptiste 11:19:17 SEM - M 45 SEM 135
109 BERRANGER Claude 11:19:41 V1M - M 44 V1M 10
110 BER G E Stephane 11:20:18 V1M - M 45 V1M 321
111 JOBARD Patrick 11:20:34 V1M - M 46 V1M 163
112 PERRET Francois 11:20:49 V2M - M 16 V2M 15
113 GILBERTAS Patrick 11:21:49 V1M - M 47 V1M 377
114 GAY Christophe 11:21:54 SEM - M 46 SEM 432
115 LARIDON Didier 11:24:16 V2M - M 17 V2M 58
116 VACHEY Patrice 11:25:23 V1M - M 48 V1M 385
117 MOTHU Alain 11:25:31 V2M - M 18 V2M 111
118 RICHARDEAU Mathieu 11:25:39 SEM - M 47 SEM 46
119 TERRANOVA Daniel 11:25:45 V2M - M 19 V2M 28
120 ERNOULT Stephane 11:27:48 V1M - M 49 V1M 295
121 FERRERE Walter 11:27:58 V1M - M 50 V1M 139
122 HARANT Fabrice 11:30:09 V1M - M 51 V1M 91
123 BAYLE Edouard 11:31:53 SEM - M 48 SEM 160
124 T H EVR ET Cedric 11:31:59 SEM - M 49 SEM 330
125 PERTHU? Jean Pierre 11:32:18 V2M - M 20 V2M 291
126 PLEUCHOT Didier 11:32:32 V2M - M 21 V2M 269
127 DEGANNE Vincent 11:33:14 SEM - M 50 SEM 279
128 VIVET Anthony 11:33:27 SEM - M 51 SEM 120
129 DUPERRAY Remy 11:34:22 SEM - M 52 SEM 48
130 LOBRY Beno 11:34:28 SEM - M 53 SEM 131
131 ROBIN Alexis 11:34:36 SEM - M 54 SEM 85
132 YOUSFI Cherif 11:34:39 SEM - M 55 SEM 95
133 PAJOT Francois 11:34:45 SEM - M 56 SEM 257
134 FABRE Guillaume 11:34:50 SEM - M 57 SEM 259
135 BRAUN Paul Andre 11:35:54 V1M - M 52 V1M 413
136 GEFFARD Thibaut 11:37:39 ESM - M 1 ESM 103
137 BOUCHER David 11:37:50 V1M - M 53 V1M 173
138 BABLET Yannick 11:38:13 SEM - M 58 SEM 437
139 VANDEWIELE Jerome 11:39:00 V1M - M 54 V1M 196
140 RAVENEAU Kevin 11:40:03 SEM - M 59 SEM 12
141 JARRY Gilles 11:40:29 SEM - M 60 SEM 74
142 JUDON Olivier 11:40:34 SEM - M 61 SEM 208
143 NOEL Vincent 11:40:45 V2M - M 22 V2M 294
144 VIOUX Claude 11:41:10 V1M - M 55 V1M 137
145 GRILLON Maxence 11:41:55 SEM - M 62 SEM 230
146 REUILLY Guillaume 11:42:02 SEM - M 63 SEM 215
147 PERARD Guillaume 11:42:15 SEM - M 64 SEM 287
148 SAIGNE Sylvain 11:42:20 SEM - M 65 SEM 281
149 HILDEBRAND Carmen 11:42:52 V1F - F 3 V1F 61
150 DESPEIGNES Laurent 11:43:14 SEM - M 66 SEM 51
151 DENIAU Didier 11:43:18 V1M - M 56 V1M 44
152 ROUS Jean Francois 11:43:22 V1M - M 57 V1M 315
153 FELGUEIRAS Duarte 11:43:29 SEM - M 67 SEM 193
154 BOINOT Clement 11:43:50 SEM - M 68 SEM 189
155 JACOUD Eric 11:45:02 V2M - M 23 V2M 260
156 VEYSSET Franck 11:45:13 V1M - M 58 V1M 288
157 NOURY Antoine 11:46:02 SEM - M 69 SEM 148
158 SCHABANEL Sabine 11:46:05 SEF - F 3 SEF 5
159 BRIDOT G?rald 11:47:03 SEM - M 70 SEM 399
160 POULAIN Christophe 11:49:04 V1M - M 59 V1M 423
161 GIROUX Thierry 11:50:40 V2M - M 24 V2M 30
162 FIEVET David 11:51:13 V1M - M 60 V1M 277
163 TEKNETZIS Apostolos 11:52:56 SEM - M 71 SEM 6
164 MAIXANDEAU Alain 11:53:06 V2M - M 25 V2M 415
165 HARIVONGS Philippe 11:53:24 V2M - M 26 V2M 233
166 ETIENNEY Arnaud 11:53:43 V1M - M 61 V1M 166
167 MARTIN Thierry 11:53:50 V1M - M 62 V1M 110
168 ROMERO Michel 11:53:57 V2M - M 27 V2M 132
169 G EN T ES Ang?lique 11:55:12 SEF - F 4 SEF 301
170 ARCOUET Thomas 11:55:34 SEM - M 72 SEM 220
171 BLAIS Pascal 11:56:38 V1M - M 63 V1M 334
172 ROUSSEAU Nicolas 11:57:08 SEM - M 73 SEM 41
173 RAMBAUD Dominique 11:57:20 V1M - M 64 V1M 136
174 JAFFEUX Jerome 11:58:18 SEM - M 74 SEM 40
175 LIBROBUONO Rodolphe 11:58:41 V1M - M 65 V1M 108
176 ARNAUD Jeremy 11:58:46 SEM - M 75 SEM 221
177 PERRIN Francois 11:58:48 V1M - M 66 V1M 241
178 ARROU Jerome 12:02:35 SEM - M 76 SEM 318
179 ROCHE Jeremy 12:02:39 SEM - M 77 SEM 317
180 ROULIN Arnaud 12:02:54 SEM - M 78 SEM 391
181 BUCHIN Olivier 12:03:00 V1M - M 67 V1M 201
182 SANCHIS Benoit 12:03:05 SEM - M 79 SEM 245
183 LEBRUN Lucky 12:04:41 V1M - M 68 V1M 9
184 HAMELIN David 12:04:48 V1M - M 69 V1M 232
185 VERNEYRE Christian 12:06:30 V3M - M 1 V3M 307
186 COUTINEAU Beno 12:07:04 SEM - M 80 SEM 153
187 MELON Jean Pierre 12:07:24 V1M - M 70 V1M 250
188 CHARTIER Fabrice 12:08:49 V1M - M 71 V1M 69
189 LE FLAHEC Herv 12:11:01 V2M - M 28 V2M 156
190 CHRISTELLE K?vin 12:11:16 SEM - M 81 SEM 226
191 CHARBONNEL Thierry 12:11:38 V2M - M 29 V2M 127
192 RICHARD Henri 12:13:33 V3M - M 2 V3M 304
193 BENNEJEAN C?cile 12:13:39 V1F - F 4 V1F 180
194 RENAUD Dominique 12:13:44 V2M - M 30 V2M 340
195 VACOSSIN Francois 12:13:49 V2M - M 31 V2M 305
196 DELAVAULT Christian 12:14:49 V1M - M 72 V1M 70
197 GIRODON Jacky 12:14:55 V1M - M 73 V1M 370
198 ROUSSET Francois 12:16:18 V1M - M 74 V1M 319
199 CAMPS Didier 12:16:28 V2M - M 32 V2M 323
200 BLANCHARD S?bastien 12:16:49 V1M - M 75 V1M 56
201 PERRAULT Gilles 12:17:01 V2M - M 33 V2M 354
202 PERRAULT Adrien 12:17:06 V2M - M 34 V2M 364
203 PASQUAY Vincent 12:17:12 V2M - M 35 V2M 169
204 CATHEBRAS Eric 12:17:15 V2M - M 36 V2M 126
205 CHAPON Bertrand 12:17:19 SEM - M 82 SEM 39
206 ROUX Jean Philippe 12:17:27 V1M - M 76 V1M 292
207 REGE TURO Bruno 12:17:32 V2M - M 37 V2M 393
208 ARRIGONI Franck 12:17:35 V1M - M 77 V1M 13
209 BOULEAUX Patrick 12:17:47 V1M - M 78 V1M 446
210 THOMAS Aurelien 12:18:02 SEM - F 83 SEM 93
211 WIART David 12:19:24 SEM - M 84 SEM 419
212 MARCHAL Frederic 12:21:08 V1M - M 79 V1M 449
213 SCHALL Eric 12:22:17 V1M - M 80 V1M 411
214 ROCHE MANGEART Laurence 12:24:46 V1F - F 5 V1F 243
215 COLLET S?bastien 12:25:14 SEM - M 85 SEM 421
216 DUBOIS Thierry 12:25:23 V2M - M 38 V2M 392
217 BITARD Gr?gory 12:26:29 SEM - M 86 SEM 96
218 DU CHELAS Gael 12:26:36 SEM - M 87 SEM 366
219 BASSET Dimitri 12:26:41 SEM - M 88 SEM 403
220 COUSTAURY Guillaume 12:30:38 ESM - M 2 ESM 152
221 BUYCK Filip 12:30:44 V2M - M 39 V2M 34
222 COSSON Stephane 12:32:42 V1M - M 81 V1M 227
223 ZAPLOTNY Dimitri 12:32:46 V1M - M 82 V1M 210
224 GOSSET Sylvain 12:33:00 SEM - M 89 SEM 155
225 LEROY Francis 12:34:57 V1M - M 83 V1M 92
226 CASTEL Arnaud 12:35:04 V1M - M 84 V1M 178
227 BUCILLIAT Thierry 12:35:21 SEM - M 90 SEM 252
228 PICARD Yvelise 12:35:29 V2F - F 2 V2F 356
229 PICARD Maurice 12:35:36 V3M - M 3 V3M 355
230 LIPOWIEZ Fabrice 12:35:44 V1M - M 85 V1M 171
231 GEORGET Matthieu 12:35:48 SEM - M 91 SEM 407
232 MARCHESSEAU Vincent 12:35:50 SEM - M 92 SEM 409
233 PETIT Judica 12:35:53 SEM - M 93 SEM 410
234 SACCU Francois 12:35:56 V1M - M 86 V1M 343
235 AGUILAR Yannick 12:36:00 V1M - M 87 V1M 219
236 BRUNEL Jean Francois 12:37:32 V1M - M 88 V1M 24
237 BRUNEL Vincent 12:37:39 V1M - M 89 V1M 19
238 LEGENDRE Jean Yves 12:38:40 V2M - M 40 V2M 190
239 CHATAIN Anthony 12:39:45 SEM - M 94 SEM 306
240 DOYEN Guillaume 12:40:29 SEM - M 95 SEM 145
241 DURAND Lionel 12:41:11 SEM - M 96 SEM 229
242 SCHWARZ Jean Emmanuel 12:41:13 SEM - M 97 SEM 240
243 BERLAND Jacky 12:45:08 V2M - M 41 V2M 49
244 ABEN Bart 12:45:36 V1M - M 90 V1M 25
245 SAULNIER Thomas 12:46:43 SEM - M 98 SEM 4
246 REMY Miguel 12:50:48 V1M - M 91 V1M 320
247 CHAMPION Ludovic 12:51:00 V1M - M 92 V1M 361
248 DELOURME Thierry 12:51:05 V2M - M 42 V2M 27
249 BREGEON Baptiste 12:51:15 SEM - M 99 SEM 170
250 DUFLOS Henry Louis 12:52:14 V2M - M 43 V2M 154
251 LEDEZ Jean Bernard 12:52:20 V1M - M 93 V1M 157
252 DOLET Loic 12:53:30 SEM - M 100 SEM 428
253 PION Jean Michel 12:54:07 V2M - M 44 V2M 134
254 PINTUREAU Thierry 12:54:11 V2M - M 45 V2M 113
255 EUGENE Michel 12:54:14 V2M - M 46 V2M 101
256 LECLERC Philippe 12:54:16 SEM - M 101 SEM 267
257 LIVENAIS Jacques 12:54:20 V2M - M 47 V2M 286
258 BARBIER Virginie 12:54:46 SEF - F 5 SEF 444
259 BARBIER Luc 12:54:51 V1M - M 94 V1M 443
260 EDER Wilfrid 12:55:17 V2M - M 48 V2M 179
261 ARNAUD Frederic 12:55:20 V1M - M 95 V1M 177
262 RESTELLI Eddie 12:55:26 V2M - M 49 V2M 184
263 TEJEDOR David 12:55:47 SEM - M 102 SEM 268
264 BRODESOLLES Yoann 12:56:12 SEM - M 103 SEM 38
265 DEVEIX Vincent 12:56:18 V1M - M 96 V1M 203
266 DUMAN Irfan 12:57:25 SEM - M 104 SEM 262
267 MEME Bruno 12:59:10 V2M - M 50 V2M 278
268 VILLAIN Eric 12:59:20 V1M - M 97 V1M 266
269 CHARCHAUDE Claude 12:59:23 V1M - M 98 V1M 261
270 BONNET Jean Marc 13:01:52 V2M - M 51 V2M 308
271 PUCELLE Jacky 13:02:40 V2M - M 52 V2M 369
272 CHEVALIER Pierrick 13:03:18 V1M - M 99 V1M 404
273 VIDALE Jerome 13:04:38 SEM - M 105 SEM 119
274 NAESSENS Guillaume 13:04:41 SEM - M 106 SEM 218
275 PEIRETTI Thierry 13:05:12 V2M - M 53 V2M 450
276 KOCH Herv 13:09:19 V1M - M 100 V1M 249
277 COTTIN Jo 13:09:48 V3M - M 4 V3M 129
278 MOREL Benoit 13:11:42 SEM - M 107 SEM 272
279 TABARDIN Sylvain 13:12:59 V1M - M 101 V1M 298
280 GODRON Jean Jacques 13:14:28 V2M - M 54 V2M 408
281 CHOUTEAU Jerome 13:15:47 SEM - M 108 SEM 451
282 MAGUIN Laurent 13:20:11 V2M - M 55 V2M 109
283 BENOITS Ludovic 13:21:22 V1M - M 102 V1M 144
284 POIGNANT Etienne 13:22:18 V1M - M 103 V1M 21
285 FEVRIER Pascal 13:23:15 V2M - M 56 V2M 309
286 JOUSSAUME Vincent 13:23:17 SEM - M 109 SEM 207
287 MOKROUCHINE Serguei 13:26:07 V1M - M 104 V1M 396
288 ADLAN MERINI Patrick 13:27:16 V2M - M 57 V2M 442
289 MORIN Catherine 13:27:26 V2F - F 3 V2F 441
290 BOUEME Patricia 13:27:32 V2F - F 4 V2F 372
291 JOUBERT Jean 13:27:41 V1M - M 105 V1M 86
292 REAUTE Jerome 13:28:30 V1M - M 106 V1M 63
293 SACLEUX David 13:29:10 SEM - M 110 SEM 3
294 COUPE Jean Francois 13:31:46 SEM - M 111 SEM 60
295 GRISARD Christian 13:31:52 V2M - M 58 V2M 293
296 GUY Alexandre 13:33:59 V1M - M 107 V1M 263
297 PANHUYSEN Michiel 13:34:38 V1M - M 108 V1M 150
298 MAALST? Nicole 13:34:50 V1F - F 6 V1F 149
299 DOUILLET David 13:35:08 SEM - M 112 SEM 345
300 LESPINASSE Bruno 13:36:56 V1M - M 109 V1M 312
301 BOURGINE Bertrand 13:40:42 V2M - M 59 V2M 284
302 DUSSART Christophe 13:43:23 V2M - M 60 V2M 358
303 BOUDIN Stephane 13:43:24 SEM - M 113 SEM 379
304 SABATIER Thierry 13:44:26 V2M - M 61 V2M 342
305 BUCH Alain 13:45:45 V3M - M 5 V3M 47
306 BECK ER Sebastien 13:47:04 V1M - M 110 V1M 50
307 GOUELLE Thierry 13:48:19 V2M - M 62 V2M 29
308 CRESSONNIER Rodolphe 13:48:24 V1M - M 111 V1M 141
309 BAUDRY S?bastien 13:53:54 V1M - M 112 V1M 123
310 GUINET Benoit 13:54:01 V2M - M 63 V2M 106
311 BEG Y N S?bastien 13:54:08 V1M - M 113 V1M 322
312 THEISSE Pierre 13:54:15 SEM - M 114 SEM 82
313 VIOUX Adrien 13:54:16 SEM - M 115 SEM 83
314 CHEVALLIER K?vin 13:58:20 SEM - M 116 SEM 128
315 JACQUART Julien 13:58:27 SEM - M 117 SEM 438
316 RODRIGUES Esrrael 14:09:13 SEM - M 118 SEM 341
317 BOISSEAU Jean Marc 14:15:16 V1M - M 114 V1M 14
318 GREGOIRE Teddy 14:19:50 SEM - M 119 SEM 73
319 BREUILLE Thibaut 14:19:53 SEM - M 120 SEM 67
320 MARTIN Loic 14:19:58 SEM - M 121 SEM 62
321 SELOSSE Romain 14:20:04 SEM - M 122 SEM 80


ReferencementCe site est listé dans la catégorie Sport : Sports extrêmes Dictionnaire
| Accueil | La Réunion  Vue du ciel | Météo | Cyclones | Volcan | Cirques de Mafate , Cilaos , Salazie | Photos Randonnées | Randonnées Réunion: Randos Espiègle , Courses montagne | Diagonale des Fous |  Marathon des Sables | Voyages Les stats du site | Fonds écran | Plan du site | Blog de runraid | Galerie photos Sport Réunion |